User: anonymous   Login
Location: Muenchen
(48.1800°N, 11.5800°E)
Time: 15:21:33
(UTC+01:00)
Language:

Sich 1 Rocket - Orbit

View from above orbital plane
View from above orbital plane
View from above satellite
View from above satellite

Ground track
Ground track

The orbit data is extracted from the following two-line orbital elements,

1 23659U 95046C   15026.59018993  .00000272  00000-0  34420-4 0  1357
2 23659 082.5289 034.9862 0025505 204.3657 295.5376 14.77951224 45645
Epoch (UTC): 26 January 2015 14:09:52
Eccentricity: 0.0025505
inclination: 82.5289°
perigee height: 618 km
apogee height: 653 km
right ascension of ascending node: 34.9862°
argument of perigee: 204.3657°
revolutions per day: 14.77951224
mean anomaly at epoch: 295.5376°
orbit number at epoch: 4564

The dashed part of the orbit path shows where the satellite is in the earth's shadow,  

DLR